Regional Weather Roundup
Issued by NWS Mt. Holly, NJ

Home | Current Version | Previous Version | Text Only | Print | Product List | Glossary On
Versions: 1 2 3 4 5 6 7 8 9 10 11 12 13 14 15 16 17 18 19 20 21 22 23 24 25 26 27 28 29 30 31 32 33 34 35 36 37 38 39 40 41 42 43 44 45 46 47 48 49 50
000
ASUS41 KPHI 112212
RWRPHI

REGIONAL WEATHER ROUNDUP
NATIONAL WEATHER SERVICE MOUNT HOLLY NJ
500 PM EST THU FEB 11 2016

NOTE:  "FAIR" INDICATES FEW OR NO CLOUDS BELOW 12,000 FEET WITH NO
SIGNIFICANT WEATHER AND/OR OBSTRUCTIONS TO VISIBILITY.

 * = STATION DOES NOT REPORT PRECIPITATION (E.G. RAIN, SNOW, ETC.)
        OR FOG.

NJZ015>026-112300-
SOUTHERN NEW JERSEY

CITY           SKY/WX    TMP DP  RH WIND       PRES   REMARKS
POMONA         MOCLDY    24   1  36 W21G32    30.09R WCI   9
WILDWOOD*      MOCLDY    27   3  36 W18G30    30.11R WCI  13
MILLVILLE      PTCLDY    24   1  36 NW22G28   30.11R WCI   9
WRIGHTSTOWN    PTCLDY    24   1  37 NW22G28   30.03R WCI   8
MOUNT HOLLY    PTCLDY    23   1  38 W16G28    30.08R WCI  10
TRENTON        MOCLDY    23   6  48 W10G20    30.05R WCI  12

$$
NJZ001>014-112300-
NORTHERN NEW JERSEY

CITY           SKY/WX    TMP DP  RH WIND       PRES   REMARKS
SUSSEX         MIX PCPN  19   1  45 W12G24    29.99R WCI   7
ANDOVER*         N/A     19  -5  34 NW14G22   29.99R WCI   6
MORRISTOWN     MOCLDY    21   1  42 NW17G28   30.00R WCI   7
NEWARK         MOCLDY    24   2  38 W17G26    30.01R WCI  11
TETERBORO      CLEAR     24  -5  27 NW16G31   29.99R WCI  11
CALDWELL       PTCLDY    23  -5  29 NW17G26   30.00R WCI   9
SOMERVILLE     MOCLDY    23   0  36 NW12G30   30.01R WCI  12
ALLAIRE*       CLOUDY    25   0  33 W20G31    30.01R WCI  11
TOMS RIVER*    CLOUDY    25   0  33 W20G33    30.05R WCI  11

$$
PAZ043-044-047-054-055-060>062-066>071-112300-
EASTERN PENNSYLVANIA

CITY           SKY/WX    TMP DP  RH WIND       PRES   REMARKS
PHILADELPHIA   MOCLDY    26  -1  31 W16G29    30.11R WCI  14
NORTH PHILA    PTCLDY    24   4  42 W16G22    30.09R WCI  11
BLUE BELL*       N/A     21   5  49 W10G24    30.06R WCI  10
DOYLESTOWN     CLOUDY    20   7  57 W10G24    30.04R WCI   9
QUAKERTOWN*    PTCLDY    19   7  58 NW13G18   30.05R WCI   7
PERKASIE*      FAIR      19   7  58 W14G21    30.04R WCI   6
POTTSTOWN      CLOUDY    22   3  44 W16G24    30.08R WCI   8
LANCASTER      PTCLDY    20   3  48 W20G30    30.10R WCI   4
COATESVILLE    CLEAR     19   3  49 W18G29    30.08R WCI   4
READING        MOCLDY    22   3  44 W17       30.08R WCI   8
ALLENTOWN      PTCLDY    21   6  52 W17G25    30.04R WCI   7
MOUNT POCONO   PTCLDY    13  -7  40 NW17G35   29.88R WCI  -4
HAZLETON       MOCLDY    18  -2  41 W17G23    29.97R WCI   2
LEHIGHTON      FAIR      21   1  42 W8        30.04R WCI  12
WILKES BARRE   CLOUDY    17  -3  41 NW21G30   30.00R WCI   0

$$
DEZALL-MDZ008-012-015-019-020-112300-
DELAWARE AND EASTERN MARYLAND

CITY           SKY/WX    TMP DP  RH WIND       PRES   REMARKS
WILMINGTON     PTCLDY    22   5  48 W23G32    30.13R WCI   6
DOVER          PTCLDY    26   4  39 W21G31    30.12R WCI  11
GEORGETOWN     CLEAR     27   1  32 W16G30    30.14R WCI  15
EASTON         PTCLDY    27   3  36 NW12G23   30.19R WCI  16
ABERDEEN       MOCLDY    25   9  50 W16G31    30.15R WCI  12
PATUXENT       PTCLDY    30   1  29 NW16G26   30.16R WCI  19
OCEAN CITY     CLEAR     28   2  32 NW13G24   30.13R WCI  17
WALLOPS ISLAND FAIR      30   5  34 NW13G23   30.14R WCI  20
CAMBRIDGE      CLEAR     28   3  34 NW13G23   30.16R WCI  18
SALISBURY      CLEAR     28   5  37 NW21G28   30.14R WCI  15

$$
PAZ001-021-NYZ056-072-MDZ011-DCZ001-112300-
OTHER NEARBY LOCATIONS

CITY           SKY/WX    TMP DP  RH WIND       PRES   REMARKS
HARRISBURG     MOCLDY    23   4  44 NW22G29   30.12R WCI   8
STATE COLLEGE  MOCLDY    18   0  45 NW13G23   30.07R WCI   4
WILLIAMSPORT   MOCLDY    21  -1  38 W18G26    30.07R WCI   6
BINGHAMTON     CLOUDY     9   1  70 NW13G21   29.93R WCI  -7
NEW YORK CITY  PTCLDY    23  -3  32 MISG      30.00R
BALTIMORE      PTCLDY    25   0  33 W18G29    30.17R WCI  11
WASHINGTON DC  FAIR      28   0  29 W14G21    30.20R WCI  17

$$



USA.gov is the U.S. government's official web portal to all federal, state and local government web resources and services.